Location: Antoign�
(47.0844°N, 0.1131°W)
Time: 11:09:32
(UTC+00:00)

CZ-4B R/B - Pass Details

Date: 03 March 2021
Orbit: 388 x 455 km, 97.6° (Epoch: 11 April)

Event Time Altitude Azimuth Distance (km) Brightness Sun altitude
Rises 18:39:59 0° 6° (N) 2,293 4.9 -9.5°
Reaches altitude 10° 18:42:00 10° 360° (N) 1,435 4.0 -9.8°
Maximum altitude 18:44:54 42° 288° (WNW) 577 2.6 -10.3°
Drops below altitude 10° 18:47:49 10° 215° (SW) 1,438 4.4 -10.8°
Sets 18:49:50 0° 209° (SSW) 2,300 5.4 -11.2°
